Follow iAlert.com on twitter @ialertcom
Search For Active Alerts in Your Area  
  Hi Guest:  [ Sign-up / Services ] [ Login ]

Current weather by "City, St" or "zip code"  
 

Advertise Here

Current Conditions: Waco, Waco Regional Airport, TX

Overcast


78.0 F

Last Updated on Jun 18 2018, 7:51 am CDT
Humidity: 82%
Wind Speed: E 9.2 mph
Barometer 29.98 in
Dewpoint: 72.0 F
Visibility: 10.00 mi
Precip: --
Heat Index: NA
Wind Chill: NA
Current conditions at:

Waco, Waco Regional Airport, TX (KACT)

Lat: 31.61 Lon: 97.227

Local Radar Image active severe weather and emergency alerts image image weather storm and storm spotter reports image weather observation monitoring service image
Local
Radar
Active
Alerts
Storm Reports Obs
Monitoring

iAlert Weather and Emergency Alert Notification Services:


ialert severe weather and emergency alerts by text message and email ialert daily weather forecast by email and text message service ialert real-time weather-observation monitoring and alert notification service ialert storm report monitoring alert notification

Observation History for Waco, Waco Regional Airport, TX


Time Wind
(mph)
Vis
(mi)
Weather Precip (in) Temperature (F) Relative
Humidity
Wind
Chill
(°F)
Heat
Index
(°F)
Pressure
Air Dwpt altimeter
(in)
sea level
(mb)
7:51 am CDT E 9.2 10.00 Overcast -- 78.0 72.0 82% NA NA 29.98 1014.2
6:51 am CDT E 6.9 10.00 Overcast -- 77.0 72.0 85% NA NA 29.96 1013.8
5:51 am CDT SE 9.2 10.00 Overcast Trace 77.0 72.0 85% NA NA 29.95 1013.3
4:51 am CDT SE 10.4 10.00 Light Rain Trace 78.0 72.0 82% NA NA 29.94 1013.1
3:51 am CDT SE 10.4 10.00 Overcast -- 79.0 72.0 79% NA NA 29.93 1012.7
2:51 am CDT SE 11.5 10.00 Overcast -- 79.0 73.0 82% NA NA 29.94 1012.8
1:51 am CDT SE 15.0 10.00 Overcast -- 79.0 73.0 82% NA NA 29.94 1013.0
12:51 am CDT SE 12.7 10.00 Overcast -- 80.0 73.0 79% NA 84 29.96 1013.4
11:51 pm CDT SE 20.7 G 27.6 10.00 Mostly Cloudy and Breezy -- 80.0 72.0 76% NA 84 29.95 1013.5
10:51 pm CDT E 11.5 10.00 Partly Cloudy -- 81.0 72.0 74% NA 85 29.94 1013.1
9:51 pm CDT E 10.4 10.00 Fair -- 81.0 72.0 74% NA 85 29.93 1012.5
8:51 pm CDT E 11.5 10.00 Fair -- 83.0 71.1 67% NA 88 29.92 1012.5
7:51 pm CDT E 15.0 10.00 Fair -- 87.0 70.0 57% NA 92 29.91 1012.0
6:51 pm CDT E 13.8 10.00 Fair Trace 89.0 71.1 55% NA 95 29.88 1011.0
5:51 pm CDT E 15.0 G 24.2 10.00 Partly Cloudy -- 96.0 70.0 43% NA 103 29.89 1011.1
4:51 pm CDT E 13.8 G 24.2 10.00 Mostly Cloudy -- 92.0 70.0 49% NA 98 29.89 1011.4
3:51 pm CDT SE 10.4 10.00 Mostly Cloudy -- 95.0 70.0 44% NA 101 29.90 1011.6
2:51 pm CDT E 8.1 10.00 Mostly Cloudy -- 93.0 68.0 44% NA 97 29.91 1012.0
1:51 pm CDT SE 11.5 10.00 Partly Cloudy -- 91.0 69.1 49% NA 96 29.93 1012.6
12:51 pm CDT 6.9 10.00 Overcast -- 91.0 70.0 50% NA 97 29.95 1013.3
11:51 am CDT SW 8.1 10.00 Mostly Cloudy Trace 88.0 72.0 59% NA 95 29.97 1013.9
10:51 am CDT S 5.8 10.00 Mostly Cloudy -- 86.0 71.1 61% NA 92 29.97 1014.1
9:51 am CDT SE 11.5 10.00 Mostly Cloudy -- 84.0 70.0 63% NA 88 29.96 1013.7
8:51 am CDT SE 5.8 10.00 Fair -- 82.0 72.0 72% NA 87 29.96 1013.6

Regional Weather Observation


Waco-James Connally Airport, TX (KCNW)

Overcast
77.0 F

Waco, Mc Gregor Executive Airport, TX (KPWG)

Overcast
79.0 F

Gatesville, City-County Airport, TX (KGOP)

Mostly Cloudy
75.0 F

Hillsboro, Hillsboro Municipal Airport, TX (KINJ)

Overcast
77.0 F

Temple, Draughon-Miller Central Texas Regional Airport, TX (KTPL)

Overcast
77.0 F

Fort Hood, Hood AAF Ft Hood, TX (KHLR)

Overcast
77.0 F

Advertise Here